Regional Weather Roundup
Issued by NWS

Home | Current Version | Previous Version | Text Only | Print | Product List | Glossary On
Versions: 1 2 3 4 5 6 7 8 9 10 11 12 13 14 15 16 17 18 19 20 21 22 23 24 25 26 27 28 29 30 31 32 33 34 35 36 37 38 39 40 41 42 43 44 45 46 47 48 49 50
000
ASUS45 KSLC 240010
RWRUT

UTAH REGIONAL WEATHER ROUNDUP
NATIONAL WEATHER SERVICE SALT LAKE CITY UT
500 PM MST MON JAN 23 2017

UTZ001>011-023>025-240100-

NORTHERN UTAH

CITY           SKY/WX    TMP DP  RH WIND       PRES   REMARKS
BRIGHAM CITY     N/A     32  30  93 SW13      29.53R VSB 1/2 WCI  22
HILL AFB       LGT SNOW  32  30  93 SW21      29.53R FOG     WCI  20
LOGAN          SNOW      31  31 100 SW16      29.49R VSB 1/2 WCI  20
OGDEN          LGT SNOW  31  31 100 SW15      29.53R FOG     WCI  20
SALT LAKE CITY LGT SNOW  33  32  96 CALM      29.56R FOG
TOOELE VALLEY  CLOUDY    34  32  93 S7        29.57R WCI  28
WENDOVER       CLOUDY    32  21  64 NW6       29.58R WCI  26
HEBER CITY     LGT SNOW  30  27  86 S14G21    29.49R WCI  20
WEST JORDAN    CLOUDY    32  32 100 CALM      29.55R VSB 3/4

$$

UTZ011>015-024>027-240100-

CENTRAL/NORTHEAST UTAH

CITY           SKY/WX    TMP DP  RH WIND       PRES   REMARKS
PROVO AIRPORT  LGT SNOW  32  32 100 S5        29.58R FOG     WCI  27
MOAB/CANYONLAN CLOUDY    41  32  70 S12       29.55R
DELTA          CLOUDY    34  30  86 S10       29.57S WCI  26
PRICE          PTCLDY    32  26  78 NE9       29.51R WCI  24
RICHFIELD      MOCLDY    36  25  64 SW16G23   29.60R WCI  26
ROOSEVELT      CLOUDY    32  28  86 CALM      29.54R
VERNAL         CLOUDY    31  28  89 SW5       29.51R WCI  26

$$

UTZ013>016-019>022-027-240100-

SOUTHERN UTAH

CITY           SKY/WX    TMP DP  RH WIND       PRES   REMARKS
BRYCE CANYON   MOCLDY    22  14  71 W16       29.59S WCI   8
CEDAR CITY     LGT SNOW  28  26  92 S7        29.64R VSB 3/4 WCI  21
MILFORD        CLOUDY    36  28  73 S15       29.61R WCI  27
ST GEORGE      CLOUDY    46  30  53 S6        29.67S
HANKSVILLE     PTCLDY    43  19  39 MISG      29.58S
KANAB          CLEAR     37  28  70 SW10      29.69F WCI  30
BLANDING       CLOUDY    31  29  92 W9        29.73S WCI  23

$$

REGIONAL REPORTS     COLORADO/ARIZONA

CITY           SKY/WX    TMP DP  RH WIND       PRES   REMARKS
CRAIG, CO      SNOW      30  27  88 W16G25    29.56R VSB 1/4 WCI  19
GRAND JUNCTION CLOUDY    37  32  82 NE6       29.58R WCI  32
RIFLE, CO      LGT SNOW  32  31  96 W12G24    29.59R FOG     WCI  23
MONTROSE, CO   CLOUDY    35  31  85 W15G31    29.63R WCI  25
CORTEZ, CO     SNOW      32  32 100 W16       29.68R VSB 1/2 WCI  21
COLORADO CITY  LGT SNOW  37  32  81 W20G26    29.70R WCI  27
PAGE, AZ       CLOUDY    41  26  55 NW6       29.65S
GRAND CANYON   SNOW      29  28  96 SW17      29.67S VSB 1/2 WCI  17
KINGMAN, AZ    LGT RAIN  37  34  89 SW13      29.74R WCI  29
FLAGSTAFF, AZ  LGT SNOW  28  26  92 SW15G26   29.68R VSB 3/4 WCI  16

$$

REGIONAL REPORTS    NEVADA/IDAHO/WYOMING

CITY           SKY/WX    TMP DP  RH WIND       PRES   REMARKS
LAS VEGAS, NV  MOCLDY    48  31  51 SW17      29.65F
ELY, NY        CLOUDY    26  12  55 NW6       29.62R WCI  19
ELKO, NV       MOCLDY    28  21  75 W9        29.65R WCI  19
POCATELLO, ID  LGT SNOW  31  29  92 N9        29.46R VSB 3/4 WCI  23
BURLEY, ID     SNOW      29  26  89 W18G26    29.53R VSB 1/2 WCI  16
FORT BRIDGER,  LGT SNOW  22  22 100 SW6       29.47R WCI  15
EVANSTON, WY   LGT SNOW  25  22  88 SW17      29.43R FOG     WCI  12
ROCK SPRINGS,  CLOUDY    29  26  89 E16       29.37F WCI  17
KEMMERER, WY   LGT SNOW  27  21  80 S6        29.41S WCI  20

$$



USA.gov is the U.S. government's official web portal to all federal, state and local government web resources and services.